FW7441 Weather Reports


time (UTC)temp
C
wind
direction
speed
KPH
gust
KPH
rain 1hr
cm
rain 24hr
cm
rain mn
cm
humidity
%
barometer
mb
20260504060149 13 204 0.0 1.6 0.00 0.00 0.00 73 1005.0
20260504050617 14 231 1.6 1.6 0.00 0.00 0.00 68 1005.2
20260504050115 14 245 1.6 1.6 0.00 0.00 0.00 68 1005.0
20260504045612 14 275 1.6 1.6 0.00 0.00 0.00 68 1005.0
20260504045106 14 210 0.0 1.6 0.00 0.00 0.00 67 1004.9
20260504044604 14 235 4.8 9.7 0.00 0.00 0.00 68 1005.0
20260504044101 15 247 3.2 3.2 0.00 0.00 0.00 67 1004.8
20260504043558 14 199 4.8 4.8 0.00 0.00 0.00 68 1005.3
20260504043055 14 242 3.2 3.2 0.00 0.00 0.00 69 1005.0
20260504042552 14 238 0.0 0.0 0.00 0.00 0.00 68 1005.1
20260504042049 14 235 3.2 3.2 0.00 0.00 0.00 69 1005.1
20260504041545 14 242 1.6 3.2 0.00 0.00 0.00 68 1005.1
20260504041041 14 221 0.0 1.6 0.00 0.00 0.00 69 1005.1
20260504040539 14 275 3.2 4.8 0.00 0.00 0.00 68 1005.1
20260504040035 14 215 1.6 1.6 0.00 0.00 0.00 68 1005.1
20260504035532 14 207 3.2 3.2 0.00 0.00 0.00 68 1005.0
20260504035028 15 345 1.6 1.6 0.00 0.00 0.00 68 1005.1
20260504034526 15 285 1.6 3.2 0.00 0.00 0.00 67 1005.3
20260504034023 15 216 1.6 1.6 0.00 0.00 0.00 67 1005.2
20260504033521 14 175 4.8 4.8 0.00 0.00 0.00 68 1005.2
20260504033018 15 210 0.0 0.0 0.00 0.00 0.00 68 1005.4
20260504032515 15 206 0.0 0.0 0.00 0.00 0.00 67 1005.3
20260504032012 15 212 4.8 9.7 0.00 0.00 0.00 66 1005.4
20260504031509 15 215 1.6 3.2 0.00 0.00 0.00 66 1005.5
20260504031005 15 218 3.2 3.2 0.00 0.00 0.00 66 1005.5
20260504030503 15 201 1.6 1.6 0.00 0.00 0.00 66 1005.5
20260504025958 15 164 0.0 1.6 0.00 0.00 0.00 65 1005.7
20260504025455 15 106 3.2 4.8 0.00 0.00 0.00 65 1005.5
20260504024952 15 201 3.2 4.8 0.00 0.00 0.00 64 1005.4
20260504024449 15 208 1.6 1.6 0.00 0.00 0.00 64 1005.3
20260504023946 15 242 6.4 9.7 0.00 0.00 0.00 64 1005.5
20260504023443 15 199 1.6 1.6 0.00 0.00 0.00 64 1005.5
20260504022938 15 200 0.0 0.0 0.00 0.00 0.00 63 1005.6
20260504022434 15 210 0.0 0.0 0.00 0.00 0.00 63 1005.7
20260504021926 15 197 0.0 0.0 0.00 0.00 0.00 63 1005.6
20260504021423 15 212 0.0 0.0 0.00 0.00 0.00 64 1005.4
20260504020920 15 208 0.0 0.0 0.00 0.00 0.00 64 1005.4
20260504020417 15 202 0.0 0.0 0.00 0.00 0.00 64 1005.5
20260504015914 15 202 0.0 0.0 0.00 0.00 0.00 63 1005.4
20260504015409 15 201 0.0 0.0 0.00 0.00 0.00 64 1005.1
20260504014905 15 205 0.0 0.0 0.00 0.00 0.00 64 1005.3
20260504014401 15 206 0.0 1.6 0.00 0.00 0.00 63 1005.3
20260504013853 15 214 0.0 0.0 0.00 0.00 0.00 63 1005.2
20260504013351 15 213 0.0 0.0 0.00 0.00 0.00 62 1005.4
20260504012847 15 214 0.0 0.0 0.00 0.00 0.00 61 1005.3
20260504012345 15 214 0.0 0.0 0.00 0.00 0.00 61 1004.9
20260504011843 16 220 0.0 0.0 0.00 0.00 0.00 60 1004.9
20260504011339 16 219 0.0 0.0 0.00 0.00 0.00 59 1004.9
20260504010835 16 200 0.0 0.0 0.00 0.00 0.00 58 1004.9
20260504010331 17 230 0.0 0.0 0.00 0.00 0.00 58 1004.9
20260504005827 17 189 0.0 0.0 0.00 0.00 0.00 57 1004.8
20260504005324 17 202 0.0 0.0 0.00 0.00 0.00 56 1004.9
20260504004822 17 217 0.0 0.0 0.00 0.00 0.00 55 1005.0
20260504004319 17 230 1.6 3.2 0.00 0.00 0.00 54 1005.0
20260504003815 17 220 0.0 1.6 0.00 0.00 0.00 54 1004.9
20260504003312 18 302 6.4 8.0 0.00 0.00 0.00 54 1004.9
20260504002808 18 250 4.8 4.8 0.00 0.00 0.00 53 1004.8
20260504002306 18 206 1.6 1.6 0.00 0.00 0.00 53 1004.9
20260504001804 18 211 3.2 4.8 0.00 0.00 0.00 52 1004.8
20260504001301 18 213 4.8 4.8 0.00 0.00 0.00 51 1004.9
20260504000758 18 266 1.6 1.6 0.00 0.00 0.00 52 1004.9
20260504000254 18 114 1.6 3.2 0.00 0.00 0.00 51 1004.8
20260503235752 18 233 1.6 3.2 0.00 0.00 0.00 51 1004.8
20260503235249 19 234 8.0 12.9 0.00 0.00 0.00 50 1004.8
20260503234747 19 220 4.8 4.8 0.00 0.00 0.00 50 1005.1
20260503234245 19 268 1.6 1.6 0.00 0.00 0.00 50 1004.5
20260503233742 19 259 4.8 8.0 0.00 0.00 0.00 48 1004.9
20260503233237 19 252 3.2 4.8 0.00 0.00 0.00 48 1004.8
20260503232735 20 241 4.8 9.7 0.00 0.00 0.00 48 1004.8
20260503232232 20 251 4.8 4.8 0.00 0.00 0.00 48 1004.6
20260503231730 20 245 1.6 3.2 0.00 0.00 0.00 48 1005.1
20260503231226 20 355 4.8 8.0 0.00 0.00 0.00 49 1005.0
20260503230722 20 311 3.2 4.8 0.00 0.00 0.00 47 1004.8
20260503230220 20 247 6.4 9.7 0.00 0.00 0.00 47 1004.9
20260503225717 20 207 3.2 3.2 0.00 0.00 0.00 47 1005.0
20260503225217 20 221 9.7 16.1 0.00 0.00 0.00 46 1004.9
20260503224715 20 247 3.2 4.8 0.00 0.00 0.00 47 1005.1
20260503224213 20 285 3.2 3.2 0.00 0.00 0.00 49 1005.0
20260503223710 20 249 8.0 11.3 0.00 0.00 0.00 47 1005.1
20260503223207 20 175 3.2 3.2 0.00 0.00 0.00 48 1004.9
20260503222703 20 228 8.0 11.3 0.00 0.00 0.00 47 1005.2
20260503222201 20 273 8.0 9.7 0.00 0.00 0.00 47 1005.4
20260503221659 20 235 0.0 1.6 0.00 0.00 0.00 48 1005.1
20260503221157 20 210 11.3 16.1 0.00 0.00 0.00 48 1005.2
20260503220653 20 218 11.3 22.5 0.00 0.00 0.00 48 1005.4
20260503220150 20 219 9.7 16.1 0.00 0.00 0.00 47 1005.5
20260503215647 20 254 4.8 8.0 0.00 0.00 0.00 49 1005.5
20260503215143 20 200 6.4 11.3 0.00 0.00 0.00 48 1005.4
20260503214642 20 219 8.0 9.7 0.00 0.00 0.00 47 1005.5
20260503214138 19 226 11.3 16.1 0.00 0.00 0.00 48 1005.6
20260503213632 20 192 8.0 9.7 0.00 0.00 0.00 48 1005.8
20260503213128 19 149 8.0 12.9 0.00 0.00 0.00 46 1005.6
20260503212625 19 306 4.8 4.8 0.00 0.00 0.00 47 1006.0
20260503212123 19 123 6.4 8.0 0.00 0.00 0.00 47 1006.0
20260503211620 19 191 8.0 11.3 0.00 0.00 0.00 47 1006.2
20260503211116 19 165 12.9 20.9 0.00 0.00 0.00 47 1006.1
20260503210613 19 249 8.0 11.3 0.00 0.00 0.00 47 1006.4
20260503210109 19 172 9.7 12.9 0.00 0.00 0.00 47 1006.5
20260503205605 19 260 3.2 3.2 0.00 0.00 0.00 48 1006.2
20260503205101 19 279 8.0 12.9 0.00 0.00 0.00 47 1006.4
20260503204558 19 242 6.4 9.7 0.00 0.00 0.00 47 1006.4
20260503204055 18 217 11.3 16.1 0.00 0.00 0.00 48 1006.5
20260503203552 18 269 9.7 12.9 0.00 0.00 0.00 48 1006.8
20260503203049 18 192 6.4 11.3 0.00 0.00 0.00 48 1006.9
20260503202547 18 201 1.6 3.2 0.00 0.00 0.00 47 1006.9
20260503202045 18 217 11.3 12.9 0.00 0.00 0.00 49 1007.1
20260503201543 18 232 6.4 9.7 0.00 0.00 0.00 53 1007.3
20260503201040 17 239 12.9 17.7 0.00 0.00 0.00 53 1007.3
20260503200536 18 300 11.3 17.7 0.00 0.00 0.00 53 1007.7
20260503200033 17 223 6.4 9.7 0.00 0.00 0.00 56 1007.8
20260503195530 17 122 14.5 17.7 0.00 0.00 0.00 54 1007.8
20260503195027 17 102 9.7 14.5 0.00 0.00 0.00 55 1007.8
20260503194525 17 250 16.1 16.1 0.00 0.00 0.00 55 1007.8
20260503194024 17 237 1.6 3.2 0.00 0.00 0.00 55 1008.0
20260503193521 17 208 8.0 11.3 0.00 0.00 0.00 55 1007.7
20260503193016 16 221 11.3 14.5 0.00 0.00 0.00 55 1008.0
20260503192512 17 204 8.0 14.5 0.00 0.00 0.00 56 1008.0
20260503192008 16 288 6.4 9.7 0.00 0.00 0.00 57 1008.0
20260503191505 16 255 4.8 4.8 0.00 0.00 0.00 56 1008.1
20260503191001 16 267 8.0 11.3 0.00 0.00 0.00 55 1008.1
20260503190453 16 235 6.4 11.3 0.00 0.00 0.00 54 1008.1
20260503185950 16 225 11.3 16.1 0.00 0.00 0.00 55 1008.1
20260503185446 16 245 4.8 9.7 0.00 0.00 0.00 55 1008.0
20260503184946 16 243 6.4 9.7 0.00 0.00 0.00 55 1008.1
20260503184443 15 191 9.7 12.9 0.00 0.00 0.00 56 1008.3
20260503183939 15 234 6.4 8.0 0.00 0.00 0.00 57 1008.0
20260503183436 16 198 14.5 20.9 0.00 0.00 0.00 55 1008.4
20260503182933 15 164 12.9 14.5 0.00 0.00 0.00 56 1008.6
20260503182432 15 181 8.0 12.9 0.00 0.00 0.00 57 1008.6
20260503181929 15 233 9.7 17.7 0.00 0.00 0.00 59 1008.6
20260503181426 15 208 17.7 32.2 0.00 0.00 0.00 57 1008.6
20260503180921 14 139 16.1 17.7 0.00 0.00 0.00 59 1009.1
20260503180420 14 219 6.4 14.5 0.00 0.00 0.00 61 1009.1
20260503175916 14 356 11.3 14.5 0.00 0.00 0.00 60 1009.3
20260503175415 15 196 11.3 17.7 0.00 0.00 0.00 59 1009.5
20260503174909 15 246 6.4 8.0 0.00 0.00 0.00 62 1009.5
20260503174409 15 165 9.7 12.9 0.00 0.00 0.00 60 1009.6
20260503173909 15 216 11.3 14.5 0.00 0.00 0.00 61 1009.8
20260503173405 15 260 8.0 12.9 0.00 0.00 0.00 61 1009.9
20260503172902 14 238 8.0 9.7 0.00 0.00 0.00 63 1010.0
20260503172359 15 235 8.0 11.3 0.00 0.00 0.00 64 1010.2
20260503171855 13 150 11.3 12.9 0.00 0.00 0.00 65 1010.4
20260503171352 13 179 6.4 11.3 0.00 0.00 0.00 66 1010.5
20260503170850 14 213 22.5 29.0 0.00 0.00 0.00 65 1010.7
20260503170346 12 222 8.0 14.5 0.00 0.00 0.00 69 1010.8
20260503150738 12 254 4.8 9.7 0.00 0.00 0.00 63 1012.4
20260503150234 13 253 4.8 4.8 0.00 0.00 0.00 65 1012.2
20260503140159 11 304 4.8 11.3 0.00 0.00 0.00 66 1012.6
20260503131128 10 193 3.2 4.8 0.00 0.00 0.00 62 1013.0
20260503130626 10 201 3.2 3.2 0.00 0.00 0.00 63 1013.0
20260503130124 10 185 3.2 8.0 0.00 0.00 0.00 62 1013.0
20260503110510 8 265 6.4 9.7 0.00 0.00 0.00 63 1012.3
20260503090356 8 152 3.2 4.8 0.00 0.00 0.00 59 1013.3
20260503081323 8 225 3.2 3.2 0.00 0.00 0.00 59 1013.6
20260503080820 8 229 3.2 4.8 0.00 0.00 0.00 58 1013.7
20260503080317 7 197 0.0 0.0 0.00 0.00 0.00 60 1013.7
20260503072747 7 211 4.8 4.8 0.00 0.00 0.00 60 1013.7
20260503072244 7 214 1.6 1.6 0.00 0.00 0.00 61 1013.9
20260503071740 7 246 4.8 4.8 0.00 0.00 0.00 61 1013.7
20260503071237 7 252 3.2 3.2 0.00 0.00 0.00 62 1014.0
20260503070734 7 308 1.6 3.2 0.00 0.00 0.00 62 1014.0
20260503070232 7 237 0.0 0.0 0.00 0.00 0.00 63 1014.0